{"data":{"norad_id":55407,"intl_designator":"2023-014S","name":"STARLINK-5019","alt_names":[],"object_type":"PAYLOAD","status":"ACTIVE","operator":null,"country":"US","launch_date":"2023-01-31","launch_site_code":"AFWTR","launch_vehicle":null,"mission":null,"orbit_class":"UNKNOWN","rcs_meters":null,"size_class":null,"mass_kg":null,"dimensions":null,"purposes":["comms"],"wikipedia_slug":null,"has_3d_model":false,"image_url":null,"decayed_at":null,"tle_current":{"epoch":"2026-09-20T11:57:17.385696Z","epoch_age_seconds":96827,"freshness":"FRESH","line1":"1 55407U 23014S   26263.49811789  .00000390  00000+0  40529-4 0  9992","line2":"2 55407  69.9977 293.3639 0003701 269.1916  90.8819 14.98328683201235","mean_motion":14.98328683,"eccentricity":0.0003701,"inclination_deg":69.9977,"raan_deg":293.3639,"arg_perigee_deg":269.1916,"mean_anomaly_deg":90.8819,"bstar":4.0529e-5,"rev_number":20123,"period_min":96.107083601763,"perigee_km":569.48769576501,"apogee_km":574.63223155751,"semimajor_km":6950.1969636613,"source":"CELESTRAK","updated_at":"2026-09-21T09:00:33.216900Z"}}}